Date String (YYYY-MM-DD hh:mm:ss) UTC,Instrument flags,absolute air pressure of the measurement (hPa),sample flow rate (lpm),inlet stack bypass flow (lpm),air temperature of the measurement (°C),ambient temperature measured by the external sensor (°C),aerosol sample conditioner tube jacket temperature (°C),OPC LED temperature (°C),internal box temperature (°C),relative humidity of the measurement (%),span deviation,mass concentration of particles derived from Lorenz-Mie calculation of OPC scattering (μg/m³),mass concentration of particles derived from Lorenz-Mie calculation of OPC scattering (μg/m³),mass concentration of particles derived from Lorenz-Mie calculation of OPC scattering (μg/m³)
DateTimeUTC,F1_M11,P_M11,Q1_M11,Q2_M11,T1_M11,T2_M11,T3_M11,T4_M11,T5_M11,U1_M11,ZSPAN_M11,X2_M11,X0_M11,X1_M11
2024-01-22 00:00:00,SystemResetWarning,0821.2,5.00,000.00,023.0,022.1,000.0,031.3,024.3,16.1,0003.8,0011.60,0019.86,0010.75
2024-01-22 00:01:00,SystemResetWarning,0821.2,5.00,000.00,023.0,022.1,000.0,031.3,024.3,16.0,0004.0,0011.47,0020.15,0010.63
2024-01-22 00:02:00,SystemResetWarning,0821.2,5.00,000.00,023.0,022.1,000.0,031.3,024.3,16.0,0003.8,0011.40,0019.84,0010.55
2024-01-22 00:03:00,SystemResetWarning,0821.2,5.00,000.00,023.0,022.1,000.0,031.3,024.3,15.9,0003.9,0011.29,0018.99,0010.47
2024-01-22 00:04:00,SystemResetWarning,0821.3,5.00,000.00,023.0,022.1,000.0,031.3,024.3,15.7,0003.6,0011.21,0019.21,0010.40
2024-01-22 00:05:00,SystemResetWarning,0821.3,5.01,000.00,023.0,022.1,000.0,031.3,024.3,15.4,0003.6,0011.15,0019.33,0010.31
2024-01-22 00:06:00,SystemResetWarning,0821.3,5.01,000.00,023.0,022.1,000.0,031.3,024.3,15.3,0003.7,0011.06,0018.41,0010.27
2024-01-22 00:07:00,SystemResetWarning,0821.3,5.00,000.00,023.0,022.1,000.0,031.3,024.3,15.2,0003.8,0010.99,0017.98,0010.23
2024-01-22 00:08:00,SystemResetWarning,0821.3,5.00,000.00,023.0,022.1,000.0,031.3,024.3,15.0,0004.0,0010.96,0017.87,0010.23
2024-01-22 00:09:00,SystemResetWarning,0821.3,5.00,000.00,023.0,022.1,000.0,031.3,024.3,14.9,0004.0,0010.92,0018.02,0010.22
2024-01-22 00:10:00,SystemResetWarning,0821.3,5.00,000.00,023.0,022.1,000.0,031.3,024.3,15.0,0004.0,0010.88,0018.12,0010.22
2024-01-22 00:11:00,SystemResetWarning,0821.3,5.00,000.00,023.0,022.1,000.0,031.3,024.3,15.0,0004.2,0010.90,0018.26,0010.24
2024-01-22 00:12:00,SystemResetWarning,0821.3,5.00,000.00,023.0,022.1,000.0,031.3,024.3,14.8,0004.2,0010.94,0018.00,0010.24
2024-01-22 00:13:00,SystemResetWarning,0821.3,5.00,000.00,023.0,022.1,000.0,031.3,024.3,14.8,0004.2,0010.93,0017.37,0010.25
2024-01-22 00:14:00,SystemResetWarning,0821.3,5.00,000.00,023.0,022.1,000.0,031.3,024.3,14.8,0004.4,0011.01,0017.75,0010.26
2024-01-22 00:15:00,SystemResetWarning,0821.3,5.00,000.00,023.0,022.1,000.0,031.3,024.3,14.9,0004.5,0011.14,0017.94,0010.34
2024-01-22 00:16:00,SystemResetWarning,0821.3,5.00,000.00,023.0,022.1,000.0,031.3,024.4,14.8,0004.3,0011.17,0018.50,0010.38
2024-01-22 00:17:00,SystemResetWarning,0821.3,5.00,000.00,023.0,022.1,000.0,031.3,024.3,14.6,0004.4,0011.17,0018.62,0010.39
2024-01-22 00:18:00,SystemResetWarning,0821.4,5.01,000.00,023.0,022.1,000.0,031.3,024.3,14.6,0004.6,0011.20,0018.63,0010.39
2024-01-22 00:19:00,SystemResetWarning,0821.3,5.01,000.00,023.0,022.1,000.0,031.3,024.4,14.4,0004.7,0011.31,0018.88,0010.48
2024-01-22 00:20:00,SystemResetWarning,0821.3,5.00,000.00,023.0,022.1,000.0,031.3,024.4,14.4,0004.8,0011.35,0018.58,0010.52
2024-01-22 00:21:00,SystemResetWarning,0821.4,4.99,000.00,023.0,022.1,000.0,031.3,024.3,14.6,0004.6,0011.36,0018.34,0010.49
2024-01-22 00:22:00,SystemResetWarning,0821.4,5.00,000.00,023.0,022.1,000.0,031.3,024.4,14.5,0004.4,0011.28,0018.03,0010.39
2024-01-22 00:23:00,SystemResetWarning,0821.4,5.00,000.00,023.0,022.1,000.0,031.3,024.3,14.4,0004.4,0011.19,0017.84,0010.33
2024-01-22 00:24:00,SystemResetWarning,0821.4,5.00,000.00,023.0,022.1,000.0,031.3,024.3,14.4,0004.3,0011.14,0017.77,0010.28
2024-01-22 00:25:00,SystemResetWarning,0821.5,4.99,000.00,023.0,022.1,000.0,031.3,024.3,14.4,0004.1,0010.99,0017.30,0010.18
2024-01-22 00:26:00,SystemResetWarning,0821.5,5.00,000.00,023.0,022.1,000.0,031.3,024.3,14.4,0004.0,0010.74,0016.92,0009.99
2024-01-22 00:27:00,SystemResetWarning,0821.4,5.01,000.00,023.0,022.1,000.0,031.3,024.3,14.4,0004.0,0010.42,0015.89,0009.71
2024-01-22 00:28:00,SystemResetWarning,0821.7,5.00,000.00,023.0,022.1,000.0,031.3,024.4,14.5,0003.9,0010.13,0015.35,0009.42
2024-01-22 00:29:00,SystemResetWarning,0821.9,5.00,000.00,023.0,022.1,000.0,031.3,024.3,14.5,0003.7,0009.78,0014.71,0009.10
2024-01-22 00:30:00,SystemResetWarning,0822.0,5.00,000.00,023.0,022.1,000.0,031.3,024.3,14.5,0003.8,0009.33,0014.27,0008.69
2024-01-22 00:31:00,SystemResetWarning,0821.9,5.00,000.00,023.0,022.1,000.0,031.3,024.3,14.5,0003.6,0008.86,0013.73,0008.25
2024-01-22 00:32:00,SystemResetWarning,0822.0,5.00,000.00,023.0,022.1,000.0,031.3,024.3,14.4,0003.7,0008.41,0013.22,0007.85
2024-01-22 00:33:00,SystemResetWarning,0822.0,5.00,000.00,023.0,022.1,000.0,031.3,024.3,14.4,0004.1,0008.01,0012.63,0007.50
2024-01-22 00:34:00,SystemResetWarning,0821.9,5.00,000.00,023.0,022.1,000.0,031.3,024.3,14.5,0004.2,0007.62,0012.07,0007.13
2024-01-22 00:35:00,SystemResetWarning,0822.0,5.00,000.00,023.0,022.1,000.0,031.3,024.3,14.5,0004.3,0007.19,0011.52,0006.74
2024-01-22 00:36:00,SystemResetWarning,0822.0,5.00,000.00,023.0,022.1,000.0,031.3,024.3,14.5,0004.5,0006.82,0011.36,0006.38
2024-01-22 00:37:00,SystemResetWarning,0821.8,4.99,000.00,023.0,022.0,000.0,031.3,024.3,14.5,0004.8,0006.51,0011.52,0006.08
2024-01-22 00:38:00,SystemResetWarning,0821.6,5.00,000.00,023.0,022.0,000.0,031.3,024.3,14.4,0005.0,0006.27,0011.43,0005.85
2024-01-22 00:39:00,SystemResetWarning,0821.5,5.00,000.00,023.0,022.0,000.0,031.3,024.3,14.4,0005.1,0005.94,0010.91,0005.57
2024-01-22 00:40:00,SystemResetWarning,0821.7,5.01,000.00,023.0,022.0,000.0,031.3,024.3,14.4,0005.4,0005.71,0010.46,0005.35
2024-01-22 00:41:00,SystemResetWarning,0821.6,5.01,000.00,023.0,022.0,000.0,031.3,024.3,14.3,0005.4,0005.49,0009.89,0005.14
2024-01-22 00:42:00,SystemResetWarning,0821.6,5.01,000.00,023.0,022.0,000.0,031.3,024.3,14.3,0005.4,0005.28,0009.55,0004.93
2024-01-22 00:43:00,SystemResetWarning,0821.6,4.99,000.00,023.0,022.0,000.0,031.3,024.3,14.4,0005.4,0005.10,0009.27,0004.77
2024-01-22 00:44:00,SystemResetWarning,0821.6,5.00,000.00,023.0,022.0,000.0,031.3,024.3,14.4,0005.6,0004.90,0009.09,0004.58
2024-01-22 00:45:00,SystemResetWarning,0821.6,5.00,000.00,023.0,022.0,000.0,031.3,024.3,14.4,0005.5,0004.69,0008.80,0004.40
2024-01-22 00:46:00,SystemResetWarning,0821.7,5.00,000.00,023.0,022.0,000.0,031.3,024.3,14.3,0005.5,0004.55,0008.98,0004.27
2024-01-22 00:47:00,SystemResetWarning,0821.7,5.00,000.00,023.0,022.0,000.0,031.3,024.3,14.3,0005.4,0004.36,0008.66,0004.11
2024-01-22 00:48:00,SystemResetWarning,0821.7,5.00,000.00,023.0,022.0,000.0,031.3,024.3,14.3,0005.3,0004.18,0007.91,0003.94
2024-01-22 00:49:00,SystemResetWarning,0821.7,5.00,000.00,023.0,022.0,000.0,031.3,024.3,14.3,0004.6,0003.99,0007.14,0003.78
2024-01-22 00:50:00,SystemResetWarning,0821.7,5.00,000.00,023.0,022.0,000.0,031.3,024.3,14.3,0004.2,0003.88,0006.82,0003.70
2024-01-22 00:51:00,SystemResetWarning,0821.7,5.00,000.00,023.0,022.0,000.0,031.3,024.3,14.2,0004.1,0003.85,0006.73,0003.66
2024-01-22 00:52:00,SystemResetWarning,0821.7,5.00,000.00,023.0,022.0,000.0,031.3,024.3,14.2,0004.1,0003.86,0006.74,0003.68
2024-01-22 00:53:00,SystemResetWarning,0821.7,5.00,000.00,022.9,022.0,000.0,031.3,024.3,14.2,0004.6,0003.90,0006.84,0003.73
2024-01-22 00:54:00,SystemResetWarning,0821.7,5.00,000.00,022.9,022.0,000.0,031.3,024.3,14.3,0005.0,0003.91,0006.97,0003.72
2024-01-22 00:55:00,SystemResetWarning,0821.7,5.00,000.00,023.0,022.0,000.0,031.3,024.3,14.3,0004.8,0003.86,0006.74,0003.67
2024-01-22 00:56:00,SystemResetWarning,0821.7,4.99,000.00,022.9,022.0,000.0,031.3,024.3,14.2,0004.8,0003.88,0006.77,0003.69
2024-01-22 00:57:00,SystemResetWarning,0821.7,5.00,000.00,023.0,022.0,000.0,031.3,024.3,14.2,0004.9,0003.93,0006.54,0003.74
2024-01-22 00:58:00,SystemResetWarning,0821.8,4.99,000.00,023.0,022.0,000.0,031.3,024.3,14.2,0004.9,0003.98,0007.34,0003.79
2024-01-22 00:59:00,SystemResetWarning,0821.8,5.00,000.00,023.0,022.0,000.0,031.3,024.3,14.2,0003.7,0004.00,0007.57,0003.81
